RH
4 4 4 4 4 4 9 10 9 4 2 2 2 3 3 3 3 3 3 4 5 5 5 3 2 1 2 2 2 2 2 2 2 2 2 2 2 2 3 3 3 3 5 7 8
5 5 4 4 5 10 11 10 6 3 2 2 2 2 2 2 2 2 1 1 2 2 2 2 2 2 2 2 2 2 2 2 2 2 2 2 2 2 3 3 4 6 7 9 12
5 5 5 6 12 13 12 8 4 2 2 2 2 2 2 2 2 1 1 1 1 1 1 2 2 2 2 2 2 2 2 2 2 2 2 2 3 3 4 5 6 7 9 12 13
6 6 7 12 14 14 12 8 4 2 1 2 2 2 2 3 3 2 1 1 1 2 2 2 2 2 2 2 2 2 2 3 2 2 2 3 3 4 4 5 7 10 14 15 17
6 9 12 15 16 15 12 7 3 2 2 2 2 3 3 2 2 2 2 2 2 2 2 2 2 2 2 2 2 2 2 2 2 2 3 3 3 4 6 9 13 16 18 19 20
10 12 14 16 16 16 11 6 2 2 2 2 3 2 2 2 2 2 2 2 2 2 2 2 2 2 2 2 2 2 2 2 3 3 3 3 4 6 9 13 16 19 20 20 19
11 12 13 15 17 15 8 3 2 2 2 2 2 2 2 2 2 2 2 2 2 2 2 2 2 2 2 2 2 2 2 3 3 3 4 5 6 8 13 16 19 20 21 23 25
10 11 13 17 18 10 3 3 2 2 2 2 2 2 2 1 1 1 1 1 1 1 1 1 2 2 2 2 3 3 3 3 4 4 5 6 8 13 16 18 20 22 25 26 24
15 15 17 19 13 8 4 3 2 2 2 2 2 2 2 1 1 1 1 1 1 2 2 2 2 3 3 3 3 4 4 5 5 6 6 8 13 17 18 19 21 24 23 24 30
20 19 20 17 15 10 5 3 2 2 2 2 1 1 1 1 1 1 1 2 3 3 3 4 5 6 6 6 6 6 7 9 10 9 10 14 17 18 19 20 22 22 25 29 32
21 20 21 16 15 8 5 4 3 3 2 3 2 2 2 2 2 2 3 4 5 7 10 12 13 14 14 12 12 12 13 12 12 12 15 18 20 20 20 21 22 25 28 31 33
20 20 22 16 17 12 11 10 9 8 6 4 3 2 2 2 3 4 6 10 12 16 17 20 21 21 19 17 15 14 13 13 15 17 19 21 21 21 22 22 25 28 33 35 40
22 21 22 17 19 17 17 16 14 10 9 8 7 5 3 4 7 12 15 16 18 24 27 28 28 24 19 16 14 14 15 16 19 21 22 17 24 22 24 26 28 34 39 42 48
22 22 23 20 19 20 22 20 14 11 10 8 6 5 7 13 18 20 20 22 25 27 30 31 29 24 21 19 18 17 19 21 22 22 22 21 22 26 27 30 32 40 43 50 54
24 24 24 22 19 21 22 22 14 16 15 12 12 14 17 19 21 22 23 23 24 28 31 31 30 27 25 23 20 20 23 24 23 23 25 26 24 27 31 33 38 42 50 58 57
24 24 24 24 20 21 22 23 14 17 18 17 17 18 20 22 23 19 21 24 28 30 32 32 29 28 26 22 21 23 25 25 23 23 26 28 28 32 35 38 43 50 58 60 56
24 24 25 24 22 23 23 24 20 19 19 21 22 21 22 22 17 22 24 24 25 26 29 30 28 25 22 22 25 28 29 28 25 25 28 30 35 40 45 47 53 59 61 61 44
23 24 25 26 24 24 24 23 22 22 20 22 24 24 20 19 21 22 22 23 23 24 25 24 24 23 24 27 30 32 35 38 35 34 34 42 49 54 58 59 62 63 64 57 44
24 24 25 26 26 26 25 24 22 24 22 26 27 17 18 19 19 21 18 16 18 19 22 23 24 27 30 32 36 39 39 39 40 37 28 30 53 61 58 63 64 64 64 51 53
24 24 25 26 27 26 26 26 26 26 28 30 17 14 17 19 21 16 12 10 14 16 18 17 21 24 30 31 35 37 39 39 40 39 33 32 52 48 53 60 65 68 66 52 58
23 22 26 28 28 26 28 29 28 29 32 30 10 9 17 22 20 15 10 8 12 14 13 15 18 23 21 24 26 29 32 34 39 46 46 35 53 47 53 65 69 72 67 55 61
21 23 28 29 28 30 32 32 30 32 35 27 8 8 18 23 20 16 10 8 10 11 12 16 19 23 24 26 26 28 31 34 34 40 50 45 48 48 59 71 75 74 65 56 67
21 26 29 29 32 33 32 32 34 36 39 18 8 8 12 17 19 16 8 8 9 9 10 13 16 23 24 24 24 24 29 32 34 41 51 56 58 57 64 70 74 72 66 57 74
22 26 29 31 31 28 30 33 36 40 34 10 6 8 10 12 11 9 8 8 9 10 11 12 14 20 25 26 24 25 26 28 32 39 48 60 58 62 64 68 72 73 67 58 80
21 26 31 31 29 26 26 31 35 39 21 6 6 9 9 10 9 9 9 9 10 10 12 13 14 18 23 24 25 27 26 26 28 35 43 46 58 68 72 73 75 77 69 67 82
23 30 34 34 31 25 23 26 31 36 21 7 8 9 10 10 10 10 10 10 10 12 14 14 16 17 20 22 23 26 28 27 26 27 29 36 52 58 72 80 83 80 75 80 79
23 26 33 33 30 28 20 19 21 31 27 7 9 10 11 11 11 11 11 10 11 12 14 15 17 18 19 21 22 22 26 28 27 27 27 29 35 57 62 82 86 81 82 82 78
Wind_Speed
16 16 15 15 16 18 17 11 10 9 12 16 19 19 19 18 17 19 19 18 16 20 21 19 20 20 20 19 17 14 14 11 11 10 7 5 4 4 7 9 11 14 18 21 24
17 16 16 17 19 18 14 11 10 11 17 20 20 21 19 18 19 18 18 18 20 19 18 16 16 15 15 13 11 10 10 8 7 7 6 6 7 10 10 11 14 18 22 26 28
17 17 18 20 19 15 12 10 10 14 19 22 22 21 21 19 17 16 16 15 15 16 16 15 14 11 10 8 8 8 6 5 6 7 9 9 10 11 13 15 18 22 27 29 32
18 19 20 19 16 13 10 10 10 16 18 19 20 18 20 20 14 15 13 11 11 12 11 11 10 7 5 4 4 5 6 7 8 9 11 11 13 15 17 18 22 24 26 30 32
22 22 20 16 13 9 8 8 11 16 16 15 18 18 16 17 14 11 11 9 7 5 5 5 4 4 2 2 4 5 6 8 10 11 12 13 15 16 17 19 22 25 28 32 37
21 20 18 15 11 7 6 7 12 16 16 14 15 16 14 11 10 6 5 5 3 1 1 1 1 2 3 5 7 9 10 11 11 12 15 17 18 19 21 23 25 27 30 34 39
20 18 16 13 10 6 5 7 14 17 16 15 15 14 13 9 5 3 1 4 4 5 5 6 6 6 8 9 12 14 15 14 15 16 17 18 19 22 24 25 26 28 32 36 40
18 17 13 11 8 6 7 11 14 17 17 15 13 10 9 8 4 2 4 5 7 8 8 9 9 10 12 14 14 16 17 17 18 18 18 20 20 23 24 27 27 30 34 38 42
16 15 13 10 8 7 9 12 14 16 14 14 11 11 7 6 4 3 7 9 10 10 11 12 13 13 14 14 14 15 16 17 18 18 19 20 21 23 25 27 30 32 36 39 43
15 14 13 12 10 9 11 13 13 13 12 10 9 9 5 3 3 4 4 5 7 9 9 10 12 13 13 13 14 15 16 15 16 17 18 17 22 24 25 27 29 33 37 41 46
15 15 14 14 12 10 11 13 12 10 10 9 9 8 5 4 1 0 4 6 8 9 10 11 12 14 16 16 15 14 15 15 14 13 16 17 22 25 26 28 32 35 40 45 51
16 16 16 15 12 10 11 13 11 9 8 8 8 7 6 4 2 2 5 6 7 8 10 12 13 15 14 14 13 13 13 13 15 15 17 18 22 26 27 30 34 38 42 48 52
17 17 16 15 13 11 9 10 10 7 7 8 8 8 7 5 3 3 4 6 8 10 11 13 15 15 14 13 13 13 14 15 16 18 19 20 20 26 28 32 37 40 45 50 54
17 18 17 16 14 12 9 8 9 8 8 8 8 8 8 6 2 3 4 7 9 11 12 13 14 14 14 14 14 14 15 18 19 19 20 24 25 30 30 34 39 42 47 52 56
18 18 18 18 17 14 11 9 10 9 8 7 8 9 6 3 1 3 5 7 9 10 11 12 13 14 14 15 14 15 17 19 20 21 23 24 27 29 34 38 41 45 49 53 56
19 20 20 19 18 15 12 10 11 7 4 6 7 6 3 1 1 3 4 6 8 9 11 12 13 13 14 14 15 17 20 21 22 23 25 25 31 34 37 41 43 46 50 54 57
20 20 21 19 19 17 14 12 11 8 7 7 6 5 4 1 1 3 5 6 8 10 10 12 13 13 14 15 18 21 23 24 25 26 30 32 33 37 40 40 44 48 52 55 57
20 20 20 19 19 18 16 13 11 9 9 8 7 6 4 2 4 6 7 8 10 11 13 13 13 15 17 18 20 24 26 30 33 34 33 34 35 38 40 42 45 48 52 54 57
21 21 21 21 20 19 18 15 13 11 11 9 8 8 6 7 8 9 10 11 13 13 14 16 16 17 18 21 24 25 27 29 33 33 35 40 36 38 39 42 45 49 52 53 58
23 22 22 22 21 20 18 16 14 13 11 11 11 10 10 9 10 11 10 11 11 12 16 18 17 18 21 23 25 27 28 32 36 41 42 39 34 37 40 43 46 49 50 52 60
25 23 22 22 22 20 18 16 15 14 12 15 13 9 11 11 10 9 7 9 10 12 15 18 20 21 24 25 27 30 32 34 36 37 38 40 33 38 40 43 46 48 50 53 61
26 25 24 23 22 20 19 17 16 16 15 18 14 11 11 11 8 6 5 7 8 11 14 16 20 23 24 26 30 34 35 37 38 38 39 38 37 41 42 43 44 47 50 53 62
27 26 26 24 22 21 19 18 18 17 18 21 15 13 11 11 8 4 2 5 6 8 12 14 18 21 23 26 30 34 38 39 40 38 37 40 40 42 43 44 46 50 51 54 62
30 29 27 26 24 22 21 20 20 19 21 20 17 14 12 11 9 5 2 3 4 6 10 12 16 20 23 26 30 33 36 39 41 42 39 39 41 42 45 46 48 51 52 55 61
33 31 29 27 26 23 21 21 22 22 23 21 18 16 14 12 9 7 4 2 1 4 8 11 15 18 21 24 27 32 34 38 42 44 47 46 43 44 45 47 49 50 53 55 61
35 33 33 30 29 26 24 22 24 25 25 22 20 18 16 14 11 9 7 4 2 3 6 9 11 15 18 21 23 28 33 36 41 45 48 51 52 50 48 47 49 50 52 55 61
37 36 36 34 31 29 26 25 25 26 26 24 22 20 18 15 13 12 10 7 5 5 6 9 11 12 17 21 24 27 32 35 40 44 48 52 57 60 54 50 50 51 52 55 61
Wind_Direction
138 141 138 137 140 133 133 135 117 115 126 117 107 104 107 106 99 100 103 97 105 105 104 105 103 98 99 99 102 97 88 90 85 75 72 56 25 337 333 324 324 326 322 315 313
143 142 140 144 136 135 138 127 121 131 126 111 107 105 109 108 103 104 99 100 99 103 104 109 109 100 100 106 108 94 75 70 50 41 24 10 353 341 327 324 323 318 313 316 320
144 143 138 140 137 138 137 129 131 142 130 119 112 113 110 109 107 110 99 104 102 103 112 113 111 108 108 90 72 60 58 38 9 357 346 342 337 330 328 323 322 318 322 321 319
143 136 140 139 137 139 135 134 140 149 137 135 128 124 116 110 110 112 110 103 104 103 110 109 107 101 84 56 31 10 347 342 335 325 323 322 321 320 320 319 313 316 316 318 317
139 139 142 141 138 142 142 141 154 150 145 144 141 135 131 117 117 111 109 109 106 102 101 104 101 106 75 328 312 310 311 314 311 308 312 315 321 319 319 315 320 322 321 322 323
142 147 144 141 140 148 150 147 149 155 150 149 145 144 136 124 121 122 119 124 134 241 291 270 270 317 306 304 303 304 307 309 307 307 314 321 325 324 324 323 325 323 324 323 323
151 151 149 146 145 151 157 148 153 159 153 154 153 154 142 133 131 137 337 309 293 282 297 305 313 309 311 308 310 312 311 313 314 319 320 322 321 323 321 321 322 325 321 321 318
157 156 154 149 143 151 151 151 155 161 157 157 162 168 156 144 169 237 273 288 299 303 304 305 309 311 310 310 309 311 313 319 320 321 318 318 319 317 319 321 324 323 322 321 321
160 158 155 154 148 143 148 154 158 158 159 168 169 174 174 171 198 253 287 301 308 309 309 309 312 310 310 311 312 312 317 321 318 314 311 312 315 316 321 322 327 325 325 323 325
164 167 163 158 156 149 152 146 151 156 161 169 184 169 177 182 246 275 300 326 338 334 329 327 326 323 316 317 320 317 314 314 308 307 304 314 314 320 324 327 327 325 324 325 324
170 173 171 166 163 147 145 138 135 142 160 170 175 166 177 165 175 270 345 338 339 342 336 332 333 332 333 327 323 315 311 309 309 309 312 321 317 321 325 326 322 322 323 325 325
173 177 179 174 161 152 142 133 132 141 146 155 164 161 160 136 113 22 356 349 352 342 341 338 337 334 331 323 319 318 317 319 317 318 318 320 320 321 325 319 318 322 326 326 328
178 183 184 177 169 169 158 148 144 150 150 166 161 162 142 122 86 34 358 349 344 343 338 337 334 334 334 333 330 328 329 327 324 321 321 325 324 320 319 315 320 325 328 327 332
183 188 186 183 180 182 172 175 161 162 149 146 150 144 138 130 85 10 345 345 337 331 334 340 339 340 340 336 334 337 333 330 327 326 327 325 327 320 319 321 324 327 328 331 335
187 191 192 189 187 187 180 186 172 161 148 158 148 147 143 137 8 337 340 335 334 336 345 344 341 342 341 339 340 338 335 334 333 332 327 324 321 320 326 326 327 328 330 335 338
191 194 196 197 194 190 190 190 180 189 192 170 162 167 179 193 332 337 355 9 359 3 0 351 351 350 342 342 342 340 341 336 334 330 326 328 328 326 326 328 327 330 334 337 339
194 200 200 202 202 195 196 197 201 210 206 195 194 205 218 203 349 76 62 40 25 20 16 5 1 0 356 351 345 343 340 335 334 334 333 331 330 327 327 328 331 334 336 338 340
199 203 209 208 207 202 202 205 212 217 215 214 215 213 210 169 132 102 80 58 46 38 29 20 12 6 356 349 344 343 341 341 336 334 334 328 331 329 330 332 334 335 337 339 341
203 204 210 212 213 211 210 208 216 222 219 213 210 205 177 152 131 107 90 72 62 50 39 27 19 5 355 349 349 349 347 342 337 334 338 341 342 332 334 335 334 335 336 339 341
206 208 211 214 214 216 216 215 216 216 214 207 194 175 159 146 135 113 93 73 69 57 48 36 25 17 11 6 2 356 351 346 343 339 337 343 345 340 339 336 334 335 336 340 343
206 208 211 214 217 216 219 215 215 217 208 197 186 172 158 149 138 119 87 70 70 59 48 37 33 30 23 16 10 3 357 352 350 347 342 340 347 344 341 337 335 334 337 341 343
206 207 209 213 215 216 216 217 217 216 208 201 191 181 166 156 149 133 83 71 69 56 48 37 32 31 26 21 17 9 4 358 354 352 347 347 349 346 342 336 335 335 339 342 343
206 208 209 213 214 214 216 218 217 209 205 200 195 185 179 170 172 176 105 85 60 42 42 33 28 28 26 25 19 11 7 3 358 355 351 343 346 345 340 339 338 338 340 341 343
206 209 211 212 213 216 217 216 213 207 203 202 198 194 189 184 186 191 161 104 48 26 22 20 18 17 21 20 16 12 7 6 6 3 359 352 353 348 345 342 342 340 341 340 343
208 209 211 213 217 220 220 219 217 211 205 204 204 199 197 198 203 208 208 191 34 11 6 6 6 7 9 13 12 11 5 3 6 5 3 0 352 349 346 345 344 341 342 342 344
212 210 212 215 219 221 220 219 217 215 211 210 212 210 207 211 216 226 230 230 260 333 351 353 354 353 357 359 6 7 7 2 359 1 2 1 359 352 346 345 343 342 343 344 346
215 215 216 216 219 222 222 220 219 217 215 216 215 217 218 223 228 235 241 237 253 290 327 337 337 343 342 350 356 2 4 4 358 357 357 358 357 357 350 344 344 343 344 345 347